Location: *
(51.1248°S, 108.4023°W)
Time: 21:09:58
(UTC+00:00)

OBJECT E - Visible Passes

Search period start: 24 January 2022 00:00
Search period end: 03 February 2022 00:00
Orbit: 485 x 502 km, 97.5° (Epoch: 24 January)

Date Brightness Start Highest point End Pass type
(mag) Time Alt. Az. Time Alt. Az. Time Alt. Az.
25 Jan ? 10:40:32 10° SE 10:43:00 17° E 10:45:25 10° NE visible
29 Jan ? 10:47:12 10° SE 10:49:57 19° E 10:52:40 10° NE visible
30 Jan ? 10:26:39 10° ESE 10:28:01 12° E 10:29:23 10° ENE visible
02 Feb ? 10:53:46 10° SE 10:56:45 22° E 10:59:41 10° NE visible
